STARLINK-35373, 65792

Orbit data source: Space-Track

STARLINK-35373, 65792 is a payload satellite owned by SpaceX/Seattle (US) in SSO that was launched on Fri, 26 Sep 2025 UTC via an FALCON 9 launch vehicle from the Air Force Western Test Range (AFWTR). Payload-class satellites include a variety of spacecraft equipped with specific instruments for various scientific and technological missions. These include communications satellites like Starlink; space stations such as the ISS; scientific satellites like the Hubble; Earth observation satellites from companies like Planet Labs, Umbra, and HawkEye 360; GPS; miniature CubeSats for education and research; and military/defense satellites.

Loading next visibility...
Identifier
65792, 2025-218B
Orbit
SSO
Country
Flag of USUS
Related business
Manufacturer
SpaceX/Seattle
Mission
Operational Commercial Communications
Bus & Motor
STARLINK V2MO, Unknown motor
Mass
575 kg wet, ~530 kg dry
Launch date (UTC)
2025-09-26 (1 month ago)
Launch vehicle
FALCON 9
Launch site
Air Force Western Test Range (AFWTR)
Object type
Payload
Rocket body
Debris
Shape & HBR
Box + 2 Pan, 17.7 m
Radar Cross Section
36.964 m²

Expand to show TLE details & history
Last TLE update: 2 days ago

TLE from 2 days ago
0 STARLINK-35373
1 65792U 25218B   25312.55761659 -.00139899  00000-0 -98366-2 0  9999
2 65792  97.6023 173.5648 0001737 113.7211 246.4198 15.05824001  6743
Epoch: 2025-11-08T13:22Z
TLE epoch observation values (Epoch: 2025-11-08T13:22:58.073Z)
Latitude
-0.00004°
Longitude
-75.16268°
Altitude
552.525 km
Speed
7.585 km/s
True Right ascension
11h 34m 15s
True Declination
0° 00' 00"
Sunlit
Object was in daylight at epoch
Visualization orbit readout
Latitude
Unknown
Longitude
Unknown
Altitude
Unknown
Speed
Unknown
Apparent Right ascension
Unknown
Apparent Declination
Unknown
Sunlit
N/A
Visualization observer readout
Local Sidereal Time
04:00:42
Azimuth
Unknown
Elevation
Unknown
Doppler factor
Unknown
Orbital elements
Apogee altitude
547.173 km
Perigee altitude
544.768 km
Semi-major axis
6,924.108 km
Eccentricity
0.00017
Inclination
97.6023°
RAAN
173.5648°
Arg. of periapsis
113.7211°
True anomaly
246.40156°
Mean anomaly
246.4198°
Eccentric anomaly
246.41068°
Mean motion
3.76702 °/min
Orbital period
95.57 mins
BSTAR
-0.0098366
Loading maneuver chart data...
Computing Atmospheric mass density...
Loading historical data...
Loading historical data...
Loading historical data...
Loading historical data...
Loading historical data...
Loading historical data...
Loading historical data...

Documentation

Showing up to 5 results
|